Résultats de la compétition "Moyenne Distance" du 07-06-2008 organisée par le club 4201
     
  Télécharger le fichier CSV.  
     
     

 Circuit "Circuit H"

Licence Nom Prénom Temps CN
précédent
Score sur
la course
Différence
11355BASSETMarian0:14:5546974207-490
18120CHABANCEThomas0:15:3935234010+487
14950SOGNOMartin0:16:5434303713+283
11904DELENNEWilliam0:17:0242893684-605
8975PERRINArnaud0:17:4531893536+347
10369SIAUDUlysse0:17:5632113499+288
10384DELENNEAdrien0:19:0848653280-1585
2401DEVILLENelly0:19:1641493257-892
14681ROGERAymeric0:20:2529193074+155
17925DROINSolene0:20:47N/A3020N/A
6491ROBERTFrancoise0:21:4134872894-593
16555PICAZOMarie0:21:4926632877+214
10396HABERKORNChloé0:22:0432102844-366
12776BOUSSERThomas0:22:2929792791-188
19767LOPEZEtienne0:23:38N/A2655N/A
13567MAZARSThomas0:24:0230362611-425
3302JEANPIERREM-Therese0:24:5132172525-692
19769PONSLoïc0:25:48N/A2432N/A
10184BODYMathilde0:25:5326112425-186
18213LARGILLÈRENicolas0:26:2726692373-296
4879RAUTURIERQuentin0:26:5036212339-1282
12403FALGABeatrice0:27:3827952271-524
19275DAVIGNONFlavien0:27:45N/A2262N/A
10758BESTELSandra0:27:5920202243+223
6918CORNUPierre0:28:00N/A2241N/A
5497COCAULTYvonne0:28:2129912214-777
12608PRATGuilhem0:28:3318752198+323
9151PALCAUFabien0:28:5020832177+94
12059GROSJEANA-Marie0:29:1625902144-446
19401VIVIER-BOUDRIERThéo0:29:41N/A2114N/A
15018GUINOTMarion0:29:4428082111-697
10412LELOUPGaelle0:30:1513542075+721
13172ALIGNANNicolas0:30:2324692066-403
7910MOUGELDanielle0:31:1125272013-514
145COUPATCatherine0:31:1326902010-680
725LAURENTTherese0:31:2125872002-585
13800DELENNECamillia0:31:3125911991-600
13625SIMONAntoine0:31:3921351983-152
16048SARIONEmilie0:31:5521871966-221
2557VOGTChristiane0:31:5935331962-1571
20015ARFIJuliette0:33:55N/A1850N/A
368VESCOVOOdile0:34:2421061824-282
20067DELAPORTELéa0:35:17N/A1779N/A
9143PORTELouise0:35:4020191760-259
19689GIRARDLucille0:35:41N/A1759N/A
3179RICHARDClaudette0:35:5928551744-1111
701ABISSEGisele0:36:3131021719-1383
19011PEYCLITHugo0:36:3412061716+510
2446RIFFARDM-Lucie0:38:1932431638-1605
16634BAUDOINAnnie0:39:5420691573-496
7422BARRALMichele0:40:2620601552-508
1275ANTOINEJacqueline0:42:2516701480-190
15894LUDEWIG-JAMESCarol0:43:1321441452-692
934TESTOUDMadeleine0:43:4721731433-740
12999MOUTAULTAnais0:43:5015451432-113
4392DODINGenevieve0:44:3519591408-551
1437BOUSQUETHuguette0:49:1917471273-474
647LARMINACHGenevieve0:49:4114321263-169
15412ASTRADEBaptiste0:50:4522521237-1015
1001LEFOUESTM-Therese0:50:5222711234-1037
10804DAVIDSimone0:59:4416371051-586
17115LEROUZICNolwenn1:00:484471032+585
15579DELHOTALNathan1:14:132780846-1934
12609PRATCharline2:10:031041483-558
18829CRETEJulietteN/AN/A0N/A
15417ROCHEJonathanN/A26570-2657
9172POULAINGaelN/A19240-1924
19967DESSIMMOULIESébastienN/AN/A0N/A
12358RINGOTPaulN/A31380-3138
10411LELOUPNathalieN/A14130-1413
20306BUZONIEMarionN/AN/A0N/A

  Indice de confiance du circuit (moyenne des différences entre CN et score sur la course des 3 à 10 premiers) : 167






 Retour